This is the latest recevied weather packets stored in our database for station/object KD7AWQ. If no packets are shown the sender has not sent any weather packets the latest 10 day(s).
| Time | Temp. | Humidity | Pressure | Rain* | Wind** | Luminosity | Snow |
|---|---|---|---|---|---|---|---|
| 1777766230 | 22.78° C | 25% | 1184.5 hPa | 0 mm | - | 275 W/m² | - |
| 1777765626 | 22.78° C | 24% | 1184.8 hPa | 0 mm | - | 467 W/m² | - |
| 1777765321 | 22.78° C | 24% | 1184.9 hPa | 0 mm | - | 380 W/m² | - |
| 1777765016 | 23.33° C | 24% | 1184.6 hPa | 0 mm | - | 326 W/m² | - |
| 1777764714 | 23.33° C | 24% | 1184.4 hPa | 0 mm | - | 493 W/m² | - |
| 1777764107 | 22.78° C | 24% | 1184.4 hPa | 0 mm | - | 540 W/m² | - |
| 1777761987 | 23.33° C | 26% | 1184.9 hPa | 0 mm | - | 658 W/m² | - |
| 1777761080 | 23.33° C | 26% | 1184.9 hPa | 0 mm | - | 762 W/m² | - |
| 1777760777 | 22.78° C | 27% | 1184.9 hPa | 0 mm | - | 777 W/m² | - |
| 1777760473 | 22.22° C | 26% | 1185.2 hPa | 0 mm | - | 185 W/m² | - |
| 1777760169 | 22.78° C | 26% | 1184.9 hPa | 0 mm | - | 120 W/m² | - |
| 1777759866 | 23.33° C | 26% | 1185.2 hPa | 0 mm | - | 129 W/m² | - |
| 1777759562 | 23.33° C | 24% | 1185 hPa | 0 mm | - | 840 W/m² | - |
| 1777759258 | 24.44° C | 21% | 1185.2 hPa | 0 mm | - | 289 W/m² | - |
| 1777758956 | 23.89° C | 22% | 1185.4 hPa | 0 mm | - | 916 W/m² | - |
| 1777757744 | 23.89° C | 27% | 1185.4 hPa | 0 mm | - | 718 W/m² | - |
| 1777757442 | 23.89° C | 27% | 1185.8 hPa | 0 mm | - | 937 W/m² | - |
| 1777757140 | 23.33° C | 27% | 1185.7 hPa | 0 mm | - | 950 W/m² | - |
| 1777756838 | 23.89° C | 29% | 1186 hPa | 0 mm | - | 962 W/m² | - |
| 1777756533 | 22.78° C | 32% | 1186 hPa | 0 mm | - | 970 W/m² | - |
| 1777756230 | 22.22° C | 31% | 1186.1 hPa | 0 mm | - | 978 W/m² | - |
| 1777755927 | 22.22° C | 32% | 1186.3 hPa | 0 mm | - | 990 W/m² | - |
| 1777755321 | 21.67° C | 32% | 1186.6 hPa | 0 mm | - | 1005 W/m² | - |
| 1777754413 | 22.78° C | 30% | 1186.9 hPa | 0 mm | - | 1030 W/m² | - |
| 1777754109 | 21.67° C | 32% | 1186.6 hPa | 0 mm | - | 1036 W/m² | - |
* Rain latest hour (hover to see other rain measurements)
** Current wind speed in m/s (hover to see current wind gust speed)